Year,Month,Day,Hour,Minute,Value (Times are PST for windgust in km/hr)
2014,07,18,00,23,1.60
2014,07,18,00,24,1.60
2014,07,18,00,25,1.60
2014,07,18,00,26,1.60
2014,07,18,00,36,1.60
2014,07,18,00,40,1.60
2014,07,18,00,41,1.60
2014,07,18,00,42,1.60
2014,07,18,00,45,1.60
2014,07,18,00,50,1.60
2014,07,18,00,51,1.60
2014,07,18,00,53,1.60
2014,07,18,00,54,1.60
2014,07,18,00,55,1.60
2014,07,18,00,56,1.60
2014,07,18,00,57,1.60
2014,07,18,00,58,1.60
2014,07,18,01,00,1.60
2014,07,18,01,01,1.60
2014,07,18,01,02,1.60
2014,07,18,01,03,1.60
2014,07,18,01,04,3.20
2014,07,18,01,05,1.60
2014,07,18,01,06,1.60
2014,07,18,01,07,1.60
2014,07,18,01,08,1.60
2014,07,18,01,09,1.60
2014,07,18,01,10,1.60
2014,07,18,01,11,3.20
2014,07,18,01,12,3.20
2014,07,18,01,13,3.20
2014,07,18,01,14,3.20
2014,07,18,01,15,8.10
2014,07,18,01,16,4.80
2014,07,18,01,17,3.20
2014,07,18,01,18,3.20
2014,07,18,01,19,1.60
2014,07,18,01,20,1.60
2014,07,18,01,21,3.20
2014,07,18,01,22,1.60
2014,07,18,01,23,3.20
2014,07,18,01,24,6.40
2014,07,18,01,25,3.20
2014,07,18,01,26,4.80
2014,07,18,01,27,1.60
2014,07,18,01,28,1.60
2014,07,18,01,29,3.20
2014,07,18,01,30,4.80
2014,07,18,01,31,4.80
2014,07,18,01,32,3.20
2014,07,18,01,33,1.60
2014,07,18,01,34,1.60
2014,07,18,01,35,1.60
2014,07,18,01,36,1.60
2014,07,18,01,37,3.20
2014,07,18,01,38,4.80
2014,07,18,01,39,3.20
2014,07,18,01,40,1.60
2014,07,18,01,41,3.20
2014,07,18,01,42,6.40
2014,07,18,01,43,1.60
2014,07,18,01,44,1.60
2014,07,18,01,45,4.80
2014,07,18,01,46,1.60
2014,07,18,01,47,3.20
2014,07,18,01,48,1.60
2014,07,18,01,49,1.60
2014,07,18,01,51,4.80
2014,07,18,01,52,4.80
2014,07,18,01,53,1.60
2014,07,18,01,54,4.80
2014,07,18,01,55,1.60
2014,07,18,01,56,1.60
2014,07,18,01,57,1.60
2014,07,18,01,58,3.20
2014,07,18,01,59,3.20
2014,07,18,02,04,1.60
2014,07,18,02,05,3.20
2014,07,18,02,06,1.60
2014,07,18,02,07,3.20
2014,07,18,02,08,1.60
2014,07,18,02,10,1.60
2014,07,18,02,11,1.60
2014,07,18,02,13,3.20
2014,07,18,02,14,3.20
2014,07,18,02,15,3.20
2014,07,18,02,16,1.60
2014,07,18,02,17,1.60
2014,07,18,02,18,3.20
2014,07,18,02,19,6.40
2014,07,18,02,20,4.80
2014,07,18,02,21,3.20
2014,07,18,02,22,1.60
2014,07,18,02,23,1.60
2014,07,18,02,24,3.20
2014,07,18,02,25,3.20
2014,07,18,02,26,3.20
2014,07,18,02,27,3.20
2014,07,18,02,28,3.20
2014,07,18,02,29,3.20
2014,07,18,02,30,1.60
2014,07,18,02,31,1.60
2014,07,18,02,32,3.20
2014,07,18,02,33,1.60
2014,07,18,02,34,1.60
2014,07,18,02,35,1.60
2014,07,18,02,36,3.20
2014,07,18,02,37,1.60
2014,07,18,02,39,1.60
2014,07,18,02,41,1.60
2014,07,18,02,42,1.60
2014,07,18,02,43,1.60
2014,07,18,02,44,1.60
2014,07,18,02,45,1.60
2014,07,18,02,46,3.20
2014,07,18,02,47,4.80
2014,07,18,02,48,3.20
2014,07,18,02,49,1.60
2014,07,18,02,50,1.60
2014,07,18,02,51,3.20
2014,07,18,02,52,3.20
2014,07,18,02,53,3.20
2014,07,18,02,55,3.20
2014,07,18,02,56,1.60
2014,07,18,02,57,3.20
2014,07,18,02,58,3.20
2014,07,18,02,59,3.20
2014,07,18,03,00,3.20
2014,07,18,03,01,6.40
2014,07,18,03,02,4.80
2014,07,18,03,03,3.20
2014,07,18,03,04,9.60
2014,07,18,03,05,9.60
2014,07,18,03,06,8.10
2014,07,18,03,07,6.40
2014,07,18,03,08,6.40
2014,07,18,03,09,6.40
2014,07,18,03,10,11.30
2014,07,18,03,11,9.60
2014,07,18,03,12,8.10
2014,07,18,03,13,4.80
2014,07,18,03,14,4.80
2014,07,18,03,15,3.20
2014,07,18,03,16,3.20
2014,07,18,03,17,3.20
2014,07,18,03,18,9.60
2014,07,18,03,19,4.80
2014,07,18,03,20,6.40
2014,07,18,03,21,8.10
2014,07,18,03,22,1.60
2014,07,18,03,23,4.80
2014,07,18,03,24,8.10
2014,07,18,03,25,4.80
2014,07,18,03,26,3.20
2014,07,18,03,27,3.20
2014,07,18,03,28,3.20
2014,07,18,03,29,3.20
2014,07,18,03,30,4.80
2014,07,18,03,31,1.60
2014,07,18,03,32,4.80
2014,07,18,03,33,3.20
2014,07,18,03,34,6.40
2014,07,18,03,35,3.20
2014,07,18,03,36,8.10
2014,07,18,03,37,3.20
2014,07,18,03,38,3.20
2014,07,18,03,39,1.60
2014,07,18,03,40,3.20
2014,07,18,03,41,4.80
2014,07,18,03,42,3.20
2014,07,18,03,43,1.60
2014,07,18,03,44,1.60
2014,07,18,03,45,3.20
2014,07,18,03,46,1.60
2014,07,18,03,47,1.60
2014,07,18,03,48,4.80
2014,07,18,03,49,3.20
2014,07,18,03,50,1.60
2014,07,18,03,51,4.80
2014,07,18,03,52,3.20
2014,07,18,03,53,1.60
2014,07,18,03,54,1.60
2014,07,18,03,55,3.20
2014,07,18,03,56,3.20
2014,07,18,03,57,3.20
2014,07,18,03,58,1.60
2014,07,18,03,59,1.60
2014,07,18,04,00,3.20
2014,07,18,04,01,1.60
2014,07,18,04,02,3.20
2014,07,18,04,03,4.80
2014,07,18,04,04,1.60
2014,07,18,04,05,3.20
2014,07,18,04,06,1.60
2014,07,18,04,07,1.60
2014,07,18,04,08,3.20
2014,07,18,04,09,1.60
2014,07,18,04,10,3.20
2014,07,18,04,11,3.20
2014,07,18,04,12,4.80
2014,07,18,04,13,1.60
2014,07,18,04,14,1.60
2014,07,18,04,15,1.60
2014,07,18,04,16,3.20
2014,07,18,04,17,3.20
2014,07,18,04,18,3.20
2014,07,18,04,19,1.60
2014,07,18,04,20,1.60
2014,07,18,04,23,1.60
2014,07,18,04,24,1.60
2014,07,18,04,25,1.60
2014,07,18,04,28,1.60
2014,07,18,04,30,1.60
2014,07,18,04,31,1.60
2014,07,18,04,32,1.60
2014,07,18,04,38,1.60
2014,07,18,04,39,1.60
2014,07,18,04,40,1.60
2014,07,18,04,50,1.60
2014,07,18,04,54,1.60
2014,07,18,05,32,1.60
2014,07,18,05,33,3.20
2014,07,18,05,34,1.60
2014,07,18,05,35,1.60
2014,07,18,05,36,1.60
2014,07,18,05,37,1.60
2014,07,18,05,38,1.60
2014,07,18,05,39,1.60
2014,07,18,05,40,1.60
2014,07,18,05,41,1.60
2014,07,18,05,42,1.60
2014,07,18,05,43,1.60
2014,07,18,05,44,1.60
2014,07,18,05,45,3.20
2014,07,18,05,46,1.60
2014,07,18,05,47,1.60
2014,07,18,05,48,1.60
2014,07,18,05,49,1.60
2014,07,18,05,50,1.60
2014,07,18,05,51,1.60
2014,07,18,05,52,1.60
2014,07,18,05,53,1.60
2014,07,18,05,54,1.60
2014,07,18,05,55,1.60
2014,07,18,05,56,3.20
2014,07,18,05,57,3.20
2014,07,18,05,58,3.20
2014,07,18,05,59,1.60
2014,07,18,06,00,1.60
2014,07,18,06,01,1.60
2014,07,18,06,02,3.20
2014,07,18,06,03,1.60
2014,07,18,06,04,1.60
2014,07,18,06,05,1.60
2014,07,18,06,06,1.60
2014,07,18,06,07,3.20
2014,07,18,06,08,3.20
2014,07,18,06,09,3.20
2014,07,18,06,10,6.40
2014,07,18,06,11,3.20
2014,07,18,06,12,3.20
2014,07,18,06,13,4.80
2014,07,18,06,14,1.60
2014,07,18,06,15,1.60
2014,07,18,06,19,1.60
2014,07,18,06,20,1.60
2014,07,18,06,21,1.60
2014,07,18,06,22,1.60
2014,07,18,06,23,1.60
2014,07,18,06,24,1.60
2014,07,18,06,25,3.20
2014,07,18,06,26,3.20
2014,07,18,06,27,1.60
2014,07,18,06,28,1.60
2014,07,18,06,29,1.60
2014,07,18,06,30,1.60
2014,07,18,06,31,1.60
2014,07,18,06,32,1.60
2014,07,18,06,33,1.60
2014,07,18,06,34,1.60
2014,07,18,06,35,1.60
2014,07,18,06,36,1.60
2014,07,18,06,37,3.20
2014,07,18,06,38,1.60
2014,07,18,06,39,1.60
2014,07,18,06,40,1.60
2014,07,18,06,41,1.60
2014,07,18,06,42,1.60
2014,07,18,06,43,1.60
2014,07,18,06,44,3.20
2014,07,18,06,45,1.60
2014,07,18,06,46,1.60
2014,07,18,06,47,1.60
2014,07,18,06,48,3.20
2014,07,18,06,49,3.20
2014,07,18,06,50,1.60
2014,07,18,06,51,1.60
2014,07,18,06,52,1.60
2014,07,18,06,53,1.60
2014,07,18,06,54,1.60
2014,07,18,06,55,1.60
2014,07,18,06,56,3.20
2014,07,18,06,57,1.60
2014,07,18,06,58,1.60
2014,07,18,06,59,1.60
2014,07,18,07,00,1.60
2014,07,18,07,01,1.60
2014,07,18,07,02,1.60
2014,07,18,07,03,3.20
2014,07,18,07,04,3.20
2014,07,18,07,05,1.60
2014,07,18,07,06,1.60
2014,07,18,07,07,1.60
2014,07,18,07,08,1.60
2014,07,18,07,09,3.20
2014,07,18,07,10,1.60
2014,07,18,07,11,1.60
2014,07,18,07,12,1.60
2014,07,18,07,13,3.20
2014,07,18,07,14,1.60
2014,07,18,07,15,1.60
2014,07,18,07,16,1.60
2014,07,18,07,17,1.60
2014,07,18,07,18,1.60
2014,07,18,07,19,1.60
2014,07,18,07,20,3.20
2014,07,18,07,21,1.60
2014,07,18,07,22,4.80
2014,07,18,07,23,1.60
2014,07,18,07,24,1.60
2014,07,18,07,25,4.80
2014,07,18,07,26,3.20
2014,07,18,07,27,3.20
2014,07,18,07,28,3.20
2014,07,18,07,29,3.20
2014,07,18,07,30,1.60
2014,07,18,07,31,3.20
2014,07,18,07,32,1.60
2014,07,18,07,33,3.20
2014,07,18,07,34,3.20
2014,07,18,07,35,4.80
2014,07,18,07,36,3.20
2014,07,18,07,37,3.20
2014,07,18,07,38,3.20
2014,07,18,07,39,3.20
2014,07,18,07,40,1.60
2014,07,18,07,41,1.60
2014,07,18,07,42,1.60
2014,07,18,07,43,3.20
2014,07,18,07,44,3.20
2014,07,18,07,45,1.60
2014,07,18,07,46,3.20
2014,07,18,07,47,3.20
2014,07,18,07,48,3.20
2014,07,18,07,49,4.80
2014,07,18,07,50,6.40
2014,07,18,07,51,1.60
2014,07,18,07,52,1.60
2014,07,18,07,53,1.60
2014,07,18,07,54,1.60
2014,07,18,07,55,8.10
2014,07,18,07,56,4.80
2014,07,18,07,57,3.20
2014,07,18,07,58,3.20
2014,07,18,07,59,3.20
2014,07,18,08,00,3.20
2014,07,18,08,01,1.60
2014,07,18,08,02,3.20
2014,07,18,08,03,1.60
2014,07,18,08,04,1.60
2014,07,18,08,05,1.60
2014,07,18,08,07,3.20
2014,07,18,08,08,1.60
2014,07,18,08,09,1.60
2014,07,18,08,10,1.60
2014,07,18,08,11,3.20
2014,07,18,08,12,1.60
2014,07,18,08,13,1.60
2014,07,18,08,14,1.60
2014,07,18,08,15,3.20
2014,07,18,08,16,3.20
2014,07,18,08,17,1.60
2014,07,18,08,18,1.60
2014,07,18,08,19,3.20
2014,07,18,08,20,1.60
2014,07,18,08,21,1.60
2014,07,18,08,25,1.60
2014,07,18,08,26,3.20
2014,07,18,08,27,3.20
2014,07,18,08,28,1.60
2014,07,18,08,29,3.20
2014,07,18,08,30,4.80
2014,07,18,08,31,1.60
2014,07,18,08,32,1.60
2014,07,18,08,33,3.20
2014,07,18,08,34,4.80
2014,07,18,08,38,3.20
2014,07,18,08,39,3.20
2014,07,18,08,40,6.40
2014,07,18,08,41,3.20
2014,07,18,08,42,3.20
2014,07,18,08,43,1.60
2014,07,18,08,47,1.60
2014,07,18,08,48,1.60
2014,07,18,08,49,1.60
2014,07,18,08,50,1.60
2014,07,18,08,51,4.80
2014,07,18,08,52,4.80
2014,07,18,08,53,4.80
2014,07,18,08,54,3.20
2014,07,18,08,55,1.60
2014,07,18,08,56,1.60
2014,07,18,08,57,3.20
2014,07,18,08,58,1.60
2014,07,18,08,59,1.60
2014,07,18,09,00,1.60
2014,07,18,09,01,4.80
2014,07,18,09,02,3.20
2014,07,18,09,03,4.80
2014,07,18,09,04,6.40
2014,07,18,09,05,3.20
2014,07,18,09,06,4.80
2014,07,18,09,07,4.80
2014,07,18,09,08,3.20
2014,07,18,09,09,3.20
2014,07,18,09,11,1.60
2014,07,18,09,12,3.20
2014,07,18,09,13,4.80
2014,07,18,09,14,1.60
2014,07,18,09,15,3.20
2014,07,18,09,16,1.60
2014,07,18,09,18,3.20
2014,07,18,09,19,3.20
2014,07,18,09,20,1.60
2014,07,18,09,21,1.60
2014,07,18,09,22,3.20
2014,07,18,09,23,1.60
2014,07,18,09,24,1.60
2014,07,18,09,25,3.20
2014,07,18,09,26,3.20
2014,07,18,09,27,3.20
2014,07,18,09,28,3.20
2014,07,18,09,29,3.20
2014,07,18,09,30,1.60
2014,07,18,09,31,1.60
2014,07,18,09,32,1.60
2014,07,18,09,33,1.60
2014,07,18,09,34,1.60
2014,07,18,09,35,3.20
2014,07,18,09,36,1.60
2014,07,18,09,37,1.60
2014,07,18,09,38,1.60
2014,07,18,09,39,3.20
2014,07,18,09,40,1.60
2014,07,18,09,41,1.60
2014,07,18,09,42,1.60
2014,07,18,09,44,1.60
2014,07,18,09,45,1.60
2014,07,18,09,46,3.20
2014,07,18,09,47,4.80
2014,07,18,09,48,4.80
2014,07,18,09,49,4.80
2014,07,18,09,50,3.20
2014,07,18,09,51,3.20
2014,07,18,09,52,3.20
2014,07,18,09,53,3.20
2014,07,18,09,54,4.80
2014,07,18,09,55,1.60
2014,07,18,09,56,4.80
2014,07,18,09,57,6.40
2014,07,18,09,58,3.20
2014,07,18,09,59,6.40
2014,07,18,10,00,8.10
2014,07,18,10,01,6.40
2014,07,18,10,02,4.80
2014,07,18,10,03,3.20
2014,07,18,10,04,4.80
2014,07,18,10,05,3.20
2014,07,18,10,06,3.20
2014,07,18,10,07,3.20
2014,07,18,10,08,6.40
2014,07,18,10,09,3.20
2014,07,18,10,10,6.40
2014,07,18,10,11,1.60
2014,07,18,10,12,4.80
2014,07,18,10,13,4.80
2014,07,18,10,14,4.80
2014,07,18,10,15,4.80
2014,07,18,10,16,4.80
2014,07,18,10,17,3.20
2014,07,18,10,18,3.20
2014,07,18,10,19,3.20
2014,07,18,10,20,3.20
2014,07,18,10,21,4.80
2014,07,18,10,22,4.80
2014,07,18,10,23,4.80
2014,07,18,10,24,4.80
2014,07,18,10,25,3.20
2014,07,18,10,26,3.20
2014,07,18,10,27,3.20
2014,07,18,10,28,3.20
2014,07,18,10,29,1.60
2014,07,18,10,30,4.80
2014,07,18,10,31,3.20
2014,07,18,10,32,3.20
2014,07,18,10,33,4.80
2014,07,18,10,34,4.80
2014,07,18,10,35,3.20
2014,07,18,10,36,6.40
2014,07,18,10,37,6.40
2014,07,18,10,38,1.60
2014,07,18,10,39,1.60
2014,07,18,10,40,4.80
2014,07,18,10,41,4.80
2014,07,18,10,42,4.80
2014,07,18,10,43,3.20
2014,07,18,10,44,4.80
2014,07,18,10,45,3.20
2014,07,18,10,46,4.80
2014,07,18,10,47,3.20
2014,07,18,10,48,3.20
2014,07,18,10,49,3.20
2014,07,18,10,50,4.80
2014,07,18,10,51,6.40
2014,07,18,10,52,4.80
2014,07,18,10,53,3.20
2014,07,18,10,54,4.80
2014,07,18,10,55,4.80
2014,07,18,10,56,6.40
2014,07,18,10,57,1.60
2014,07,18,10,58,8.10
2014,07,18,10,59,4.80
2014,07,18,11,00,4.80
2014,07,18,11,01,4.80
2014,07,18,11,02,4.80
2014,07,18,11,03,8.10
2014,07,18,11,04,8.10
2014,07,18,11,05,3.20
2014,07,18,11,06,3.20
2014,07,18,11,07,8.10
2014,07,18,11,08,8.10
2014,07,18,11,09,4.80
2014,07,18,11,10,6.40
2014,07,18,11,11,9.60
2014,07,18,11,12,3.20
2014,07,18,11,13,11.30
2014,07,18,11,14,6.40
2014,07,18,11,15,11.30
2014,07,18,11,16,6.40
2014,07,18,11,17,6.40
2014,07,18,11,18,14.50
2014,07,18,11,19,8.10
2014,07,18,11,20,3.20
2014,07,18,11,21,4.80
2014,07,18,11,22,6.40
2014,07,18,11,23,6.40
2014,07,18,11,24,6.40
2014,07,18,11,25,8.10
2014,07,18,11,26,9.60
2014,07,18,11,27,8.10
2014,07,18,11,28,6.40
2014,07,18,11,29,11.30
2014,07,18,11,30,12.90
2014,07,18,11,31,9.60
2014,07,18,11,32,12.90
2014,07,18,11,33,9.60
2014,07,18,11,34,8.10
2014,07,18,11,35,8.10
2014,07,18,11,36,6.40
2014,07,18,11,37,14.50
2014,07,18,11,38,8.10
2014,07,18,11,39,11.30
2014,07,18,11,40,8.10
2014,07,18,11,41,11.30
2014,07,18,11,42,12.90
2014,07,18,11,43,12.90
2014,07,18,11,44,8.10
2014,07,18,11,45,9.60
2014,07,18,11,46,8.10
2014,07,18,11,47,6.40
2014,07,18,11,48,8.10
2014,07,18,11,49,8.10
2014,07,18,11,50,8.10
2014,07,18,11,51,9.60
2014,07,18,11,52,9.60
2014,07,18,11,53,9.60
2014,07,18,11,54,8.10
2014,07,18,11,55,8.10
2014,07,18,11,56,9.60
2014,07,18,11,57,6.40
2014,07,18,11,58,6.40
2014,07,18,11,59,8.10
2014,07,18,12,00,12.90
2014,07,18,12,01,6.40
2014,07,18,12,02,4.80
2014,07,18,12,03,4.80
2014,07,18,12,04,6.40
2014,07,18,12,05,6.40
2014,07,18,12,06,11.30
2014,07,18,12,07,4.80
2014,07,18,12,08,8.10
2014,07,18,12,09,8.10
2014,07,18,12,10,16.10
2014,07,18,12,11,11.30
2014,07,18,12,12,9.60
2014,07,18,12,13,11.30
2014,07,18,12,14,9.60
2014,07,18,12,15,9.60
2014,07,18,12,16,8.10
2014,07,18,12,17,11.30
2014,07,18,12,18,9.60
2014,07,18,12,19,6.40
2014,07,18,12,20,3.20
2014,07,18,12,21,11.30
2014,07,18,12,22,11.30
2014,07,18,12,23,3.20
2014,07,18,12,24,4.80
2014,07,18,12,25,4.80
2014,07,18,12,26,1.60
2014,07,18,12,27,6.40
2014,07,18,12,28,8.10
2014,07,18,12,29,8.10
2014,07,18,12,30,9.60
2014,07,18,12,31,6.40
2014,07,18,12,32,6.40
2014,07,18,12,33,6.40
2014,07,18,12,34,8.10
2014,07,18,12,35,6.40
2014,07,18,12,36,8.10
2014,07,18,12,37,8.10
2014,07,18,12,38,8.10
2014,07,18,12,39,6.40
2014,07,18,12,40,4.80
2014,07,18,12,41,9.60
2014,07,18,12,42,9.60
2014,07,18,12,43,6.40
2014,07,18,12,44,6.40
2014,07,18,12,45,6.40
2014,07,18,12,46,12.90
2014,07,18,12,47,12.90
2014,07,18,12,48,8.10
2014,07,18,12,49,11.30
2014,07,18,12,50,8.10
2014,07,18,12,51,11.30
2014,07,18,12,52,11.30
2014,07,18,12,53,8.10
2014,07,18,12,54,8.10
2014,07,18,12,55,11.30
2014,07,18,12,56,9.60
2014,07,18,12,57,9.60
2014,07,18,12,58,11.30
2014,07,18,12,59,12.90
2014,07,18,13,00,12.90
2014,07,18,13,01,9.60
2014,07,18,13,02,6.40
2014,07,18,13,03,8.10
2014,07,18,13,04,8.10
2014,07,18,13,05,9.60
2014,07,18,13,06,6.40
2014,07,18,13,07,6.40
2014,07,18,13,08,6.40
2014,07,18,13,09,11.30
2014,07,18,13,10,9.60
2014,07,18,13,11,8.10
2014,07,18,13,12,8.10
2014,07,18,13,13,8.10
2014,07,18,13,14,4.80
2014,07,18,13,15,9.60
2014,07,18,13,16,3.20
2014,07,18,13,17,12.90
2014,07,18,13,18,9.60
2014,07,18,13,19,9.60
2014,07,18,13,20,9.60
2014,07,18,13,21,9.60
2014,07,18,13,22,6.40
2014,07,18,13,23,4.80
2014,07,18,13,24,6.40
2014,07,18,13,25,11.30
2014,07,18,13,26,11.30
2014,07,18,13,27,6.40
2014,07,18,13,28,6.40
2014,07,18,13,29,8.10
2014,07,18,13,30,1.60
2014,07,18,13,31,3.20
2014,07,18,13,32,8.10
2014,07,18,13,33,9.60
2014,07,18,13,34,12.90
2014,07,18,13,35,4.80
2014,07,18,13,36,9.60
2014,07,18,13,37,9.60
2014,07,18,13,38,8.10
2014,07,18,13,39,11.30
2014,07,18,13,40,11.30
2014,07,18,13,41,4.80
2014,07,18,13,42,8.10
2014,07,18,13,43,8.10
2014,07,18,13,44,12.90
2014,07,18,13,45,12.90
2014,07,18,13,46,11.30
2014,07,18,13,47,11.30
2014,07,18,13,48,11.30
2014,07,18,13,49,9.60
2014,07,18,13,50,11.30
2014,07,18,13,51,6.40
2014,07,18,13,52,8.10
2014,07,18,13,53,8.10
2014,07,18,13,54,3.20
2014,07,18,13,55,6.40
2014,07,18,13,56,8.10
2014,07,18,13,57,12.90
2014,07,18,13,58,9.60
2014,07,18,13,59,9.60
2014,07,18,14,00,8.10
2014,07,18,14,01,9.60
2014,07,18,14,02,11.30
2014,07,18,14,03,12.90
2014,07,18,14,04,9.60
2014,07,18,14,05,11.30
2014,07,18,14,06,11.30
2014,07,18,14,07,14.50
2014,07,18,14,08,11.30
2014,07,18,14,09,9.60
2014,07,18,14,10,11.30
2014,07,18,14,11,11.30
2014,07,18,14,12,11.30
2014,07,18,14,13,8.10
2014,07,18,14,14,16.10
2014,07,18,14,15,6.40
2014,07,18,14,16,9.60
2014,07,18,14,17,8.10
2014,07,18,14,18,9.60
2014,07,18,14,19,16.10
2014,07,18,14,20,16.10
2014,07,18,14,21,11.30
2014,07,18,14,22,14.50
2014,07,18,14,23,11.30
2014,07,18,14,24,11.30
2014,07,18,14,25,12.90
2014,07,18,14,26,14.50
2014,07,18,14,27,11.30
2014,07,18,14,28,11.30
2014,07,18,14,29,16.10
2014,07,18,14,30,11.30
2014,07,18,14,31,9.60
2014,07,18,14,32,9.60
2014,07,18,14,33,16.10
2014,07,18,14,34,17.70
2014,07,18,14,35,9.60
2014,07,18,14,36,12.90
2014,07,18,14,37,11.30
2014,07,18,14,38,9.60
2014,07,18,14,39,11.30
2014,07,18,14,40,11.30
2014,07,18,14,41,9.60
2014,07,18,14,42,11.30
2014,07,18,14,43,9.60
2014,07,18,14,44,12.90
2014,07,18,14,45,9.60
2014,07,18,14,46,11.30
2014,07,18,14,47,3.20
2014,07,18,14,48,8.10
2014,07,18,14,49,8.10
2014,07,18,14,50,8.10
2014,07,18,14,51,8.10
2014,07,18,14,52,8.10
2014,07,18,14,53,8.10
2014,07,18,14,54,8.10
2014,07,18,14,55,8.10
2014,07,18,14,56,8.10
2014,07,18,14,57,9.60
2014,07,18,14,58,9.60
2014,07,18,14,59,9.60
2014,07,18,15,00,11.30
2014,07,18,15,01,11.30
2014,07,18,15,02,12.90
2014,07,18,15,03,9.60
2014,07,18,15,04,12.90
2014,07,18,15,05,9.60
2014,07,18,15,06,6.40
2014,07,18,15,07,6.40
2014,07,18,15,08,11.30
2014,07,18,15,09,9.60
2014,07,18,15,10,11.30
2014,07,18,15,11,8.10
2014,07,18,15,12,6.40
2014,07,18,15,13,8.10
2014,07,18,15,14,14.50
2014,07,18,15,15,11.30
2014,07,18,15,16,11.30
2014,07,18,15,17,9.60
2014,07,18,15,18,8.10
2014,07,18,15,19,11.30
2014,07,18,15,20,8.10
2014,07,18,15,21,12.90
2014,07,18,15,22,6.40
2014,07,18,15,23,8.10
2014,07,18,15,24,4.80
2014,07,18,15,25,8.10
2014,07,18,15,26,9.60
2014,07,18,15,27,4.80
2014,07,18,15,28,4.80
2014,07,18,15,29,4.80
2014,07,18,15,30,9.60
2014,07,18,15,31,8.10
2014,07,18,15,32,8.10
2014,07,18,15,33,12.90
2014,07,18,15,34,9.60
2014,07,18,15,35,6.40
2014,07,18,15,36,8.10
2014,07,18,15,37,8.10
2014,07,18,15,38,11.30
2014,07,18,15,39,8.10
2014,07,18,15,40,6.40
2014,07,18,15,41,4.80
2014,07,18,15,42,6.40
2014,07,18,15,43,8.10
2014,07,18,15,44,6.40
2014,07,18,15,45,6.40
2014,07,18,15,46,11.30
2014,07,18,15,47,9.60
2014,07,18,15,48,6.40
2014,07,18,15,49,8.10
2014,07,18,15,50,11.30
2014,07,18,15,51,3.20
2014,07,18,15,52,4.80
2014,07,18,15,53,4.80
2014,07,18,15,54,3.20
2014,07,18,15,55,8.10
2014,07,18,15,56,3.20
2014,07,18,15,57,4.80
2014,07,18,15,58,8.10
2014,07,18,15,59,8.10
2014,07,18,16,00,6.40
2014,07,18,16,01,4.80
2014,07,18,16,02,3.20
2014,07,18,16,03,8.10
2014,07,18,16,04,4.80
2014,07,18,16,05,3.20
2014,07,18,16,06,3.20
2014,07,18,16,07,4.80
2014,07,18,16,08,3.20
2014,07,18,16,09,6.40
2014,07,18,16,10,4.80
2014,07,18,16,11,9.60
2014,07,18,16,12,6.40
2014,07,18,16,13,3.20
2014,07,18,16,14,6.40
2014,07,18,16,15,3.20
2014,07,18,16,16,3.20
2014,07,18,16,17,3.20
2014,07,18,16,18,4.80
2014,07,18,16,19,6.40
2014,07,18,16,20,4.80
2014,07,18,16,21,4.80
2014,07,18,16,22,6.40
2014,07,18,16,23,4.80
2014,07,18,16,24,6.40
2014,07,18,16,25,6.40
2014,07,18,16,26,12.90
2014,07,18,16,27,8.10
2014,07,18,16,28,9.60
2014,07,18,16,29,8.10
2014,07,18,16,30,6.40
2014,07,18,16,31,6.40
2014,07,18,16,32,11.30
2014,07,18,16,33,9.60
2014,07,18,16,34,8.10
2014,07,18,16,35,9.60
2014,07,18,16,36,9.60
2014,07,18,16,37,6.40
2014,07,18,16,38,11.30
2014,07,18,16,39,9.60
2014,07,18,16,40,9.60
2014,07,18,16,41,9.60
2014,07,18,16,42,9.60
2014,07,18,16,43,9.60
2014,07,18,16,44,9.60
2014,07,18,16,45,9.60
2014,07,18,16,46,11.30
2014,07,18,16,47,9.60
2014,07,18,16,48,9.60
2014,07,18,16,49,11.30
2014,07,18,16,50,8.10
2014,07,18,16,51,4.80
2014,07,18,16,52,4.80
2014,07,18,16,53,8.10
2014,07,18,16,54,6.40
2014,07,18,16,55,6.40
2014,07,18,16,56,9.60
2014,07,18,16,57,11.30
2014,07,18,16,58,6.40
2014,07,18,16,59,6.40
2014,07,18,17,00,9.60
2014,07,18,17,01,6.40
2014,07,18,17,02,4.80
2014,07,18,17,03,4.80
2014,07,18,17,04,6.40
2014,07,18,17,05,6.40
2014,07,18,17,06,3.20
2014,07,18,17,07,8.10
2014,07,18,17,08,4.80
2014,07,18,17,09,3.20
2014,07,18,17,10,8.10
2014,07,18,17,11,4.80
2014,07,18,17,12,3.20
2014,07,18,17,13,6.40
2014,07,18,17,14,4.80
2014,07,18,17,15,8.10
2014,07,18,17,16,1.60
2014,07,18,17,17,6.40
2014,07,18,17,18,3.20
2014,07,18,17,19,4.80
2014,07,18,17,20,6.40
2014,07,18,17,21,6.40
2014,07,18,17,22,4.80
2014,07,18,17,23,4.80
2014,07,18,17,24,6.40
2014,07,18,17,25,4.80
2014,07,18,17,26,8.10
2014,07,18,17,27,6.40
2014,07,18,17,28,6.40
2014,07,18,17,29,3.20
2014,07,18,17,30,6.40
2014,07,18,17,31,6.40
2014,07,18,17,32,8.10
2014,07,18,17,33,6.40
2014,07,18,17,34,8.10
2014,07,18,17,35,8.10
2014,07,18,17,36,12.90
2014,07,18,17,37,8.10
2014,07,18,17,38,9.60
2014,07,18,17,39,9.60
2014,07,18,17,40,8.10
2014,07,18,17,41,9.60
2014,07,18,17,42,8.10
2014,07,18,17,43,11.30
2014,07,18,17,44,12.90
2014,07,18,17,45,11.30
2014,07,18,17,46,6.40
2014,07,18,17,47,9.60
2014,07,18,17,48,9.60
2014,07,18,17,49,9.60
2014,07,18,17,50,11.30
2014,07,18,17,51,12.90
2014,07,18,17,52,16.10
2014,07,18,17,53,12.90
2014,07,18,17,54,12.90
2014,07,18,17,55,8.10
2014,07,18,17,56,9.60
2014,07,18,17,57,11.30
2014,07,18,17,58,9.60
2014,07,18,17,59,9.60
2014,07,18,18,00,14.50
2014,07,18,18,01,11.30
2014,07,18,18,02,11.30
2014,07,18,18,03,11.30
2014,07,18,18,04,12.90
2014,07,18,18,05,11.30
2014,07,18,18,06,11.30
2014,07,18,18,07,12.90
2014,07,18,18,08,11.30
2014,07,18,18,09,12.90
2014,07,18,18,10,12.90
2014,07,18,18,11,11.30
2014,07,18,18,12,12.90
2014,07,18,18,13,11.30
2014,07,18,18,14,12.90
2014,07,18,18,15,11.30
2014,07,18,18,16,11.30
2014,07,18,18,17,12.90
2014,07,18,18,18,12.90
2014,07,18,18,19,11.30
2014,07,18,18,20,9.60
2014,07,18,18,21,9.60
2014,07,18,18,22,12.90
2014,07,18,18,23,12.90
2014,07,18,18,24,9.60
2014,07,18,18,25,9.60
2014,07,18,18,26,9.60
2014,07,18,18,27,9.60
2014,07,18,18,28,8.10
2014,07,18,18,29,9.60
2014,07,18,18,30,8.10
2014,07,18,18,31,8.10
2014,07,18,18,32,6.40
2014,07,18,18,33,9.60
2014,07,18,18,34,11.30
2014,07,18,18,35,11.30
2014,07,18,18,36,11.30
2014,07,18,18,37,8.10
2014,07,18,18,38,9.60
2014,07,18,18,39,12.90
2014,07,18,18,40,14.50
2014,07,18,18,41,6.40
2014,07,18,18,42,9.60
2014,07,18,18,43,12.90
2014,07,18,18,44,11.30
2014,07,18,18,45,11.30
2014,07,18,18,46,11.30
2014,07,18,18,47,8.10
2014,07,18,18,48,9.60
2014,07,18,18,49,17.70
2014,07,18,18,50,8.10
2014,07,18,18,51,9.60
2014,07,18,18,52,12.90
2014,07,18,18,53,16.10
2014,07,18,18,54,14.50
2014,07,18,18,55,12.90
2014,07,18,18,56,11.30
2014,07,18,18,57,11.30
2014,07,18,18,58,9.60
2014,07,18,18,59,12.90
2014,07,18,19,00,11.30
2014,07,18,19,01,8.10
2014,07,18,19,02,8.10
2014,07,18,19,03,11.30
2014,07,18,19,04,8.10
2014,07,18,19,05,11.30
2014,07,18,19,06,9.60
2014,07,18,19,07,9.60
2014,07,18,19,08,11.30
2014,07,18,19,09,9.60
2014,07,18,19,10,9.60
2014,07,18,19,11,11.30
2014,07,18,19,12,12.90
2014,07,18,19,13,11.30
2014,07,18,19,14,8.10
2014,07,18,19,15,6.40
2014,07,18,19,16,9.60
2014,07,18,19,17,8.10
2014,07,18,19,18,14.50
2014,07,18,19,19,11.30
2014,07,18,19,20,9.60
2014,07,18,19,21,9.60
2014,07,18,19,22,11.30
2014,07,18,19,23,6.40
2014,07,18,19,24,8.10
2014,07,18,19,25,14.50
2014,07,18,19,26,11.30
2014,07,18,19,27,11.30
2014,07,18,19,28,12.90
2014,07,18,19,29,12.90
2014,07,18,19,30,9.60
2014,07,18,19,31,9.60
2014,07,18,19,32,11.30
2014,07,18,19,33,9.60
2014,07,18,19,34,11.30
2014,07,18,19,35,11.30
2014,07,18,19,36,8.10
2014,07,18,19,37,11.30
2014,07,18,19,38,6.40
2014,07,18,19,39,9.60
2014,07,18,19,40,9.60
2014,07,18,19,41,9.60
2014,07,18,19,42,9.60
2014,07,18,19,43,9.60
2014,07,18,19,44,9.60
2014,07,18,19,45,8.10
2014,07,18,19,46,11.30
2014,07,18,19,47,11.30
2014,07,18,19,48,9.60
2014,07,18,19,49,8.10
2014,07,18,19,50,8.10
2014,07,18,19,51,11.30
2014,07,18,19,52,11.30
2014,07,18,19,53,17.70
2014,07,18,19,54,9.60
2014,07,18,19,55,12.90
2014,07,18,19,56,12.90
2014,07,18,19,57,9.60
2014,07,18,19,58,9.60
2014,07,18,19,59,8.10
2014,07,18,20,00,9.60
2014,07,18,20,01,9.60
2014,07,18,20,02,12.90
2014,07,18,20,03,11.30
2014,07,18,20,04,11.30
2014,07,18,20,05,11.30
2014,07,18,20,06,9.60